Location: Kershaw
(34.5481°N, 80.5823°W)
Time: 09:13:11
(UTC+00:00)

Altair - Pass Details

Date: 03 October 2022
Orbit: 1501 x 1682 km, 47.2° (Epoch: 30 November)

Event Time Altitude Azimuth Distance (km) Brightness Sun altitude
Rises 14:35:30 0° 299° (WNW) 4,878 9.6 36.7°
Reaches altitude 10° 14:38:49 10° 305° (NW) 3,909 9.2 37.3°
Maximum altitude 14:48:30 49° 19° (NNE) 2,079 8.5 38.8°
Drops below altitude 10° 14:58:15 10° 92° (E) 3,937 10.4 40.3°
Sets 15:01:35 0° 98° (E) 4,915 10.7 40.7°
